Showing default

GALILEO 12 (269), 41174

Orbit data source: Space-Track

GALILEO 12 (269), 41174 is a payload satellite owned by GNSS Agency (ESA) that was launched on Thu, 17 Dec 2015 UTC via a SOYUZ-ST-B launch vehicle from the French Guiana (FRGUI). Payload-class satellites include a variety of spacecraft equipped with specific instruments for various scientific and technological missions. These include communications satellites like Starlink; space stations such as the ISS; scientific satellites like the Hubble; Earth observation satellites from companies like Planet Labs, Umbra, and HawkEye 360; GPS; miniature CubeSats for education and research; and military/defense satellites.

Loading next visibility...
Identifier
41174, 2015-079A
Orbit
Active
Country
Flag of ESAESA
Related business
Manufacturer
OHB
Mission
Operational Civil Navigation
Bus & Motor
GALILEOSAT, AOCS
Mass
733 kg wet, 660 kg dry
Launch date (UTC)
2015-12-17 (11 years ago)
Launch vehicle
SOYUZ-ST-B
Launch site
French Guiana (FRGUI)
Object type
Payload
Rocket body
Debris
Shape & HBR
Box + 2 Pan, 7.3 m
Radar Cross Section
9.223 m², Large (>1 m²)

Expand to show TLE details & history
Last TLE update: 4 days ago

TLE from 4 days ago
0 GALILEO 12 (269)
1 41174U 15079A   26169.21194997 -.00000011  00000-0  00000+0 0  9997
2 41174  55.8280 101.2339 0005250 345.1239  14.8344  1.70473656 64794
Epoch: 2026-06-18T05:05Z
TLE epoch observation values (Epoch: 2026-06-18T05:05:12.477Z)
Latitude
-0.00002°
Longitude
118.47228°
Altitude
23,207.465 km
Speed
3.672 km/s
True Right ascension
06h 44m 55s
True Declination
0° 00' 00"
Sunlit
Object was in daylight at epoch
Visualization orbit readout
Latitude
Unknown
Longitude
Unknown
Altitude
Unknown
Speed
Unknown
Apparent Right ascension
Unknown
Apparent Declination
Unknown
Sunlit
N/A
Visualization observer readout
Local Sidereal Time
23:27:15
Azimuth
Unknown
Elevation
Unknown
Doppler factor
Unknown
Orbital elements
Apogee altitude
23,237.741 km
Perigee altitude
23,206.661 km
Semi-major axis
29,600.338 km
Eccentricity
0.00053
Inclination
55.828°
RAAN
101.2339°
Arg. of periapsis
345.1239°
True anomaly
14.84981°
Mean anomaly
14.8344°
Eccentric anomaly
14.84211°
Mean motion
0.42619 °/min
Orbital period
844.7 mins
BSTAR
0
Loading maneuver chart data...
Computing Atmospheric mass density...
Loading historical data...
Loading historical data...
Loading historical data...
Loading historical data...
Loading historical data...
Loading historical data...
Loading historical data...
Other satellites on launch #79 in the year 2015 (2015-12-17 UTC)

Documentation

Showing up to 5 results
|